FW9998 Weather Reports


time (UTC)temp
C
wind
direction
speed
KPH
gust
KPH
rain 1hr
cm
rain 24hr
cm
rain mn
cm
humidity
%
barometer
mb
20260505041336 13 169 6.4 9.7 0.00 0.00 0.00 64 1010.5
20260505040833 13 181 9.7 12.9 0.00 0.00 0.00 64 1010.8
20260505040331 13 200 9.7 12.9 0.00 0.00 0.00 63 1010.8
20260505035827 13 164 4.8 4.8 0.00 0.00 0.00 63 1010.8
20260505035323 13 167 9.7 11.3 0.00 0.00 0.00 62 1010.5
20260505034821 14 164 3.2 4.8 0.00 0.00 0.00 62 1010.8
20260505034317 14 165 9.7 12.9 0.00 0.00 0.00 61 1010.8
20260505033814 14 223 8.0 9.7 0.00 0.00 0.00 61 1010.8
20260505033311 14 175 6.4 6.4 0.00 0.00 0.00 60 1010.8
20260505032810 14 177 12.9 20.9 0.00 0.00 0.00 60 1010.8
20260505032305 14 187 11.3 14.5 0.00 0.00 0.00 60 1010.5
20260505031803 14 217 11.3 16.1 0.00 0.00 0.00 59 1010.8
20260505031259 14 188 11.3 14.5 0.00 0.00 0.00 59 1010.8
20260505030756 14 234 8.0 9.7 0.00 0.00 0.00 59 1010.8
20260505030252 15 198 9.7 12.9 0.00 0.00 0.00 58 1010.8
20260505025747 15 184 8.0 11.3 0.00 0.00 0.00 57 1010.8
20260505025246 15 143 9.7 12.9 0.00 0.00 0.00 57 1010.5
20260505024744 15 82 6.4 6.4 0.00 0.00 0.00 56 1010.5
20260505024241 15 203 3.2 6.4 0.00 0.00 0.00 56 1010.8
20260505023738 15 174 6.4 9.7 0.00 0.00 0.00 55 1010.8
20260505023235 15 220 4.8 6.4 0.00 0.00 0.00 55 1010.8
20260505022733 15 150 6.4 6.4 0.00 0.00 0.00 54 1010.8
20260505022229 15 214 9.7 12.9 0.00 0.00 0.00 54 1010.8
20260505021726 15 203 4.8 9.7 0.00 0.00 0.00 54 1010.8
20260505021223 15 162 3.2 4.8 0.00 0.00 0.00 53 1010.8
20260505020719 15 224 9.7 11.3 0.00 0.00 0.00 52 1010.8
20260505020214 15 187 11.3 12.9 0.00 0.00 0.00 52 1010.5
20260505015712 15 212 6.4 11.3 0.00 0.00 0.00 51 1010.5
20260505015209 16 187 12.9 16.1 0.00 0.00 0.00 51 1010.8
20260505014706 16 289 6.4 6.4 0.00 0.00 0.00 50 1010.8
20260505014203 16 180 6.4 11.3 0.00 0.00 0.00 50 1010.5
20260505013700 16 185 6.4 9.7 0.00 0.00 0.00 50 1010.5
20260505013157 16 225 9.7 12.9 0.00 0.00 0.00 50 1010.5
20260505012655 16 216 8.0 12.9 0.00 0.00 0.00 49 1010.5
20260505012152 16 148 11.3 14.5 0.00 0.00 0.00 49 1010.5
20260505011652 16 201 8.0 11.3 0.00 0.00 0.00 49 1010.1
20260505011150 16 228 4.8 4.8 0.00 0.00 0.00 48 1010.1
20260505010645 16 230 6.4 9.7 0.00 0.00 0.00 48 1010.1
20260505010142 16 199 8.0 11.3 0.00 0.00 0.00 47 1009.8
20260505005638 16 211 6.4 9.7 0.00 0.00 0.00 47 1009.8
20260505005135 17 143 6.4 9.7 0.00 0.00 0.00 46 1010.1
20260505004633 17 173 4.8 6.4 0.00 0.00 0.00 46 1009.8
20260505004129 17 125 8.0 9.7 0.00 0.00 0.00 46 1009.4
20260505003626 17 290 6.4 9.7 0.00 0.00 0.00 46 1009.4
20260505003124 17 185 6.4 9.7 0.00 0.00 0.00 46 1009.4
20260505002619 17 201 8.0 12.9 0.00 0.00 0.00 45 1009.1
20260505002118 17 216 9.7 16.1 0.00 0.00 0.00 45 1008.8
20260505001615 17 84 11.3 14.5 0.00 0.00 0.00 45 1008.8
20260505001113 17 230 12.9 16.1 0.00 0.00 0.00 45 1008.8
20260505000609 18 199 9.7 14.5 0.00 0.00 0.00 45 1008.8
20260505000107 18 236 11.3 17.7 0.00 0.00 0.00 45 1008.4
20260504235603 18 260 6.4 9.7 0.00 0.00 0.00 44 1008.4
20260504235100 18 228 9.7 11.3 0.00 0.00 0.00 44 1008.4
20260504234557 18 211 9.7 12.9 0.00 0.00 0.00 44 1008.1
20260504234054 18 136 11.3 12.9 0.00 0.00 0.00 44 1008.4
20260504233549 18 203 6.4 11.3 0.00 0.00 0.00 43 1008.1
20260504233046 18 194 12.9 16.1 0.00 0.00 0.00 43 1008.1
20260504232543 18 161 12.9 20.9 0.00 0.00 0.00 43 1007.8
20260504232041 19 257 9.7 12.9 0.00 0.00 0.00 42 1007.8
20260504231537 19 171 8.0 14.5 0.00 0.00 0.00 42 1007.8
20260504231033 19 213 14.5 17.7 0.00 0.00 0.00 41 1007.8
20260504230530 20 194 9.7 14.5 0.00 0.00 0.00 40 1007.4
20260504230029 20 212 14.5 22.5 0.00 0.00 0.00 39 1007.1
20260504225526 20 222 11.3 14.5 0.00 0.00 0.00 38 1007.1
20260504225023 20 258 12.9 16.1 0.00 0.00 0.00 38 1007.1
20260504224519 20 265 4.8 6.4 0.00 0.00 0.00 38 1007.1
20260504224017 20 241 14.5 17.7 0.00 0.00 0.00 37 1007.1
20260504223513 20 144 9.7 12.9 0.00 0.00 0.00 37 1007.1
20260504223009 20 143 8.0 14.5 0.00 0.00 0.00 37 1006.7
20260504222506 20 220 11.3 14.5 0.00 0.00 0.00 36 1007.1
20260504222004 21 243 14.5 20.9 0.00 0.00 0.00 35 1006.7
20260504221500 21 225 14.5 17.7 0.00 0.00 0.00 32 1006.7
20260504220957 21 246 17.7 22.5 0.00 0.00 0.00 31 1006.7
20260504220454 22 153 3.2 4.8 0.00 0.00 0.00 31 1006.7
20260504215951 22 126 3.2 4.8 0.00 0.00 0.00 31 1006.7
20260504215447 22 225 3.2 4.8 0.00 0.00 0.00 30 1006.7
20260504214944 22 219 6.4 6.4 0.00 0.00 0.00 30 1006.7
20260504214441 22 152 6.4 11.3 0.00 0.00 0.00 30 1006.7
20260504213937 22 276 6.4 11.3 0.00 0.00 0.00 30 1007.1
20260504213433 22 201 3.2 4.8 0.00 0.00 0.00 30 1006.7
20260504212931 22 203 4.8 4.8 0.00 0.00 0.00 29 1006.7
20260504212426 22 194 8.0 11.3 0.00 0.00 0.00 29 1006.7
20260504211925 22 199 6.4 9.7 0.00 0.00 0.00 30 1006.7
20260504211420 22 146 8.0 11.3 0.00 0.00 0.00 29 1006.7
20260504210918 23 136 3.2 3.2 0.00 0.00 0.00 29 1006.7
20260504210415 23 164 3.2 3.2 0.00 0.00 0.00 29 1006.7
20260504205912 22 205 4.8 4.8 0.00 0.00 0.00 29 1006.7
20260504205410 23 245 8.0 14.5 0.00 0.00 0.00 28 1006.7
20260504204908 22 243 6.4 12.9 0.00 0.00 0.00 29 1007.1
20260504204406 22 225 9.7 11.3 0.00 0.00 0.00 28 1006.7
20260504203905 22 169 6.4 11.3 0.00 0.00 0.00 29 1007.1
20260504203401 22 315 4.8 11.3 0.00 0.00 0.00 29 1006.7
20260504202857 22 260 3.2 4.8 0.00 0.00 0.00 28 1006.7
20260504202354 22 198 4.8 9.7 0.00 0.00 0.00 28 1006.7
20260504201851 22 306 3.2 3.2 0.00 0.00 0.00 28 1006.7
20260504201349 23 214 6.4 9.7 0.00 0.00 0.00 28 1006.7
20260504200846 22 234 6.4 9.7 0.00 0.00 0.00 27 1007.1
20260504200342 22 272 14.5 20.9 0.00 0.00 0.00 27 1007.1
20260504195839 22 188 27.4 35.4 0.00 0.00 0.00 27 1007.1
20260504195334 22 182 17.7 30.6 0.00 0.00 0.00 27 1007.4
20260504194831 22 290 38.6 41.8 0.00 0.00 0.00 27 1007.1
20260504194327 22 137 3.2 6.4 0.00 0.00 0.00 27 1007.1
20260504193823 22 200 6.4 11.3 0.00 0.00 0.00 27 1007.1
20260504193321 22 205 12.9 17.7 0.00 0.00 0.00 27 1006.7
20260504192820 22 127 3.2 4.8 0.00 0.00 0.00 27 1007.1
20260504192317 22 236 11.3 16.1 0.00 0.00 0.00 26 1007.1
20260504191815 22 95 12.9 22.5 0.00 0.00 0.00 26 1006.7
20260504191313 22 203 3.2 6.4 0.00 0.00 0.00 26 1007.1
20260504190808 22 275 8.0 11.3 0.00 0.00 0.00 27 1007.1
20260504190304 22 274 17.7 24.1 0.00 0.00 0.00 27 1007.4
20260504185801 22 201 9.7 11.3 0.00 0.00 0.00 26 1007.4
20260504185258 22 247 12.9 20.9 0.00 0.00 0.00 26 1007.4
20260504184754 21 196 19.3 22.5 0.00 0.00 0.00 27 1007.1
20260504184250 22 188 14.5 22.5 0.00 0.00 0.00 26 1007.4
20260504183746 22 214 8.0 11.3 0.00 0.00 0.00 26 1007.4
20260504183243 22 206 14.5 17.7 0.00 0.00 0.00 27 1007.4
20260504182741 22 264 6.4 9.7 0.00 0.00 0.00 27 1007.4
20260504182238 22 330 12.9 17.7 0.00 0.00 0.00 27 1007.4
20260504181736 21 204 14.5 22.5 0.00 0.00 0.00 28 1007.4
20260504181233 22 256 14.5 22.5 0.00 0.00 0.00 27 1007.4
20260504180732 22 237 11.3 14.5 0.00 0.00 0.00 27 1007.4
20260504180231 21 222 6.4 12.9 0.00 0.00 0.00 29 1007.8
20260504175728 21 236 8.0 14.5 0.00 0.00 0.00 29 1007.8
20260504175224 21 202 9.7 11.3 0.00 0.00 0.00 28 1007.8
20260504174722 21 256 14.5 17.7 0.00 0.00 0.00 27 1008.1
20260504174220 22 152 12.9 20.9 0.00 0.00 0.00 28 1007.8
20260504173716 21 311 8.0 12.9 0.00 0.00 0.00 28 1007.8
20260504173213 21 246 4.8 6.4 0.00 0.00 0.00 28 1008.1
20260504172709 21 229 8.0 12.9 0.00 0.00 0.00 28 1007.8
20260504172206 21 256 4.8 4.8 0.00 0.00 0.00 29 1007.8
20260504171703 21 228 12.9 14.5 0.00 0.00 0.00 30 1008.1
20260504171200 20 228 8.0 11.3 0.00 0.00 0.00 30 1008.1
20260504170656 20 179 4.8 6.4 0.00 0.00 0.00 30 1008.4
20260504170154 21 213 9.7 12.9 0.00 0.00 0.00 30 1008.1
20260504160112 20 171 8.0 12.9 0.00 0.00 0.00 31 1008.8
20260504151039 19 189 4.8 6.4 0.00 0.00 0.00 33 1009.1
20260504150537 19 174 6.4 9.7 0.00 0.00 0.00 33 1009.1
20260504141003 17 223 4.8 6.4 0.00 0.00 0.00 37 1009.8
20260504140459 17 178 3.2 4.8 0.00 0.00 0.00 37 1009.8
20260504130424 15 175 3.2 3.2 0.00 0.00 0.00 43 1010.8
20260504110311 9 189 3.2 4.8 0.00 0.00 0.00 54 1011.1
20260504100229 8 134 0.0 0.0 0.00 0.00 0.00 57 1011.1
20260504081622 8 148 0.0 1.6 0.00 0.00 0.00 56 1010.8
20260504081118 8 164 1.6 1.6 0.00 0.00 0.00 55 1010.8
20260504080614 8 179 1.6 1.6 0.00 0.00 0.00 55 1011.1
20260504080111 8 134 0.0 0.0 0.00 0.00 0.00 56 1011.1
20260504050427 5 197 1.6 1.6 0.00 0.00 0.00 63 1010.8
20260504045924 5 161 1.6 1.6 0.00 0.00 0.00 64 1010.8